Terminal Aerodrome Forecast
Issued by NWS

Home | Current Version | Previous Version | Text Only | Print | Product List | Glossary On
Versions: 1 2 3 4 5 6 7 8 9 10 11 12 13 14 15 16 17 18 19 20 21 22 23 24 25 26 27 28 29 30 31 32 33 34 35 36 37 38 39 40 41 42 43 44 45 46 47 48 49 50
000
FTUS41 KCTP 020532
TAFJST
TAF
KJST 020532Z 0206/0306 26011G17KT 3SM -SN BR OVC003
     FM020900 29010G17KT 4SM -SHSN BR OVC006
     FM021300 28015G25KT 4SM -SHSN OVC009
     FM021800 29016G26KT 6SM -SHSN OVC020
     FM030100 29011KT P6SM OVC030=

USA.gov is the U.S. government's official web portal to all federal, state and local government web resources and services.